NOAA 16 DEB, 41405

Orbit data source: Space-Track

NOAA 16 DEB, 41405 is space debris in SSO originally from a launch on Thu, 21 Sep 2000 UTC launched from the Air Force Western Test Range (AFWTR). Debris objects in space refer to the collection of defunct objects orbiting the Earth. Examples of debris include non-operational satellites, rocket bodies, and fragments generated from explosions, collisions, or faulty payload assembly.

Loading next visibility...
Identifier
41405, 2000-055KJ
Orbit
SSO
Country
Flag of USUS
Related business
Manufacturer
Unknown
Mission
Spacecraft
Bus & Motor
Unknown
Mass
Unknown
Launch date (UTC)
2000-09-21 (25 years ago)
Launch vehicle
Unknown
Launch site
Air Force Western Test Range (AFWTR)
Object type
Payload
Rocket body
Debris
Shape & HBR
Unknown shape, 0.1 m
Radar Cross Section
Small (<0.1 m²)

Expand to show TLE details & history
Last TLE update: 1 day ago

TLE from 1 day ago
0 NOAA 16 DEB
1 41405U 00055KJ  25295.81219158  .00022159  00000-0  56154-2 0  9994
2 41405  98.8608  57.2876 0008373 328.6582  31.4111 14.50822855500922
Epoch: 2025-10-22T19:29Z
TLE epoch observation values (Epoch: 2025-10-22T19:29:33.352Z)
Latitude
-0.00002°
Longitude
93.41821°
Altitude
720.84 km
Speed
7.498 km/s
True Right ascension
03h 49m 09s
True Declination
0° 00' 00"
Sunlit
Object was in full shadow at epoch
Visualization orbit readout
Latitude
Unknown
Longitude
Unknown
Altitude
Unknown
Speed
Unknown
Apparent Right ascension
Unknown
Apparent Declination
Unknown
Sunlit
N/A
Visualization observer readout
Local Sidereal Time
21:07:05
Azimuth
Unknown
Elevation
Unknown
Doppler factor
Unknown
Orbital elements
Apogee altitude
726.031 km
Perigee altitude
714.144 km
Semi-major axis
7,098.224 km
Eccentricity
0.00084
Inclination
98.8608°
RAAN
57.2876°
Arg. of periapsis
328.6582°
True anomaly
31.46115°
Mean anomaly
31.4111°
Eccentric anomaly
31.43612°
Mean motion
3.62926 °/min
Orbital period
99.19 mins
BSTAR
0.0056154
Loading maneuver chart data...
Computing Atmospheric mass density...
Loading historical data...
Loading historical data...
Loading historical data...
Loading historical data...
Loading historical data...
Loading historical data...
Loading historical data...

Documentation

Showing up to 5 results
|